Home   Weather   Kreuztal   Past weeks

Flag for Germany Past Weather in Kreuztal, North Rhine-Westphalia, Germany — Yesterday and Last 2 Weeks

Now
59 °F

Cool.


Feels Like: 60 °F
Forecast: 45 / 67 °F
Wind: 3 mph from Northeast

Location: Hessen

Current Time: Sep 26, 2016 at 7:25:42 PM

Latest Report: Sep 26, 2016 at 6:50 PM


Visibility: N/A

Pressure: 30.21 "Hg

Humidity: 77%

Dew Point: 52 °F

Location of KreuztalLocation

Past Weather in Kreuztal — Graph

°F

Kreuztal Temperature Yesterday

Maximum temperature yesterday: 70 °F (at 3:20 PM)
Minimum temperature yesterday: 48 °F (at 8:20 AM)
Average temperature yesterday: 64 °F

High & Low Weather Summary for the Past Weeks

 TemperatureHumidityPressure
High82 °F (Sep 13, 3:50 PM)100% (Sep 17, 7:50 AM)30.33 "Hg (Sep 17, 7:50 AM)
Low46 °F (Sep 21, 7:50 AM)39% (Sep 14, 3:50 PM)29.89 "Hg (Sep 15, 12:20 PM)
Average63 °F68%30.09 "Hg
* Reported Sep 11 5:20 PM — Sep 26 5:50 PM, Kreuztal, Weather by CustomWeather, © 2016

Note: Actual official high and low records may vary slightly from our data, if they occured in-between our weather recording intervals... More about our weather records

Advertising

Kreuztal Weather History for the Previous 24 Hours

Scroll right to see more
 ConditionsComfort  
Time TempWeatherWind HumidityBarometerVisibility
5:50 PM
Mon, Sep 26
61 °FScattered clouds.5 mph72%30.21 "HgN/A
5:20 PM61 °FScattered clouds.5 mph72%30.21 "HgN/A
4:50 PM61 °FPartly sunny.3 mph72%30.21 "HgN/A
4:20 PM61 °FPartly sunny.2 mph68%30.21 "HgN/A
3:50 PM61 °FPartly sunny.5 mph72%30.21 "HgN/A
3:20 PM61 °FPartly sunny.3 mph72%30.21 "HgN/A
2:50 PM61 °FBroken clouds.3 mph72%30.21 "HgN/A
2:20 PM59 °FBroken clouds.3 mph72%30.21 "HgN/A
1:50 PM59 °FBroken clouds.2 mph72%30.24 "HgN/A
1:20 PM59 °FBroken clouds.3 mph77%30.21 "HgN/A
12:50 PM59 °FScattered clouds.5 mph77%30.24 "HgN/A
12:20 PM57 °FPartly sunny.5 mph88%30.24 "HgN/A
11:50 AM54 °FPartly sunny.6 mph94%30.24 "HgN/A
11:20 AM52 °FPartly sunny.6 mph100%30.24 "HgN/A
10:50 AM54 °FPartly sunny.6 mph100%30.24 "Hg6 mi
10:20 AM52 °FPartly sunny.7 mph100%30.24 "Hg4 mi
9:50 AM52 °FFog.9 mph100%30.21 "Hg3 mi
9:20 AM52 °FFog.7 mph100%30.21 "Hg2 mi
8:50 AM50 °FFog.6 mph100%30.21 "Hg2 mi
8:20 AM50 °FBroken clouds.7 mph100%30.21 "HgN/A
7:50 AM52 °FPartly sunny.7 mph100%30.21 "HgN/A
8:50 PM
Sun, Sep 25
64 °FClear.7 mph64%30.12 "Hg10 mi
8:20 PM64 °FPassing clouds.7 mph64%30.12 "HgN/A
7:50 PM64 °FPassing clouds.7 mph68%30.12 "HgN/A
7:20 PM66 °FClear.6 mph64%30.12 "Hg10 mi
Weather by CustomWeather, © 2016

See weather overviewHow to use our weather pages